Location: Crescent
(42.8242°N, 73.7329°W)
Time: 00:18:42
(UTC+00:00)

ACS3 Solar Sail - Visible Passes

Search period start: 13 October 2024 00:00
Search period end: 23 October 2024 00:00
Orbit: 960 x 1033 km, 97.5° (Epoch: 12 October)

Date Brightness Start Highest point End Pass type
(mag) Time Alt. Az. Time Alt. Az. Time Alt. Az.
13 Oct 2.7 01:31:09 44° WSW 01:31:48 45° W 01:37:51 10° NNW visible
14 Oct 1.9 00:17:38 46° ESE 00:19:00 54° ENE 00:25:08 10° N visible
14 Oct 3.6 02:02:45 26° W 02:03:09 26° W 02:08:19 10° NW visible
14 Oct 3.3 23:04:06 12° E 23:06:59 17° ENE 23:10:44 10° NNE visible
15 Oct 1.8 00:49:13 71° S 00:50:00 89° WSW 00:56:22 10° NNW visible
15 Oct 4.3 02:34:19 14° W 02:34:41 14° W 02:37:50 10° NW visible
15 Oct 2.7 23:35:40 24° E 23:37:37 28° ENE 23:42:49 10° N visible
16 Oct 2.5 01:20:47 51° WSW 01:21:09 52° W 01:27:18 10° NNW visible
17 Oct 2.1 00:07:14 42° E 00:08:25 47° ENE 00:14:24 10° N visible
17 Oct 3.4 01:52:20 30° W 01:52:26 30° W 01:57:53 10° NNW visible
17 Oct 3.4 22:53:40 11° E 22:56:28 14° ENE 22:59:37 10° NNE visible
18 Oct 1.7 00:38:47 73° SE 00:39:22 81° ENE 00:45:40 10° N visible
18 Oct 4.1 02:23:53 16° W 02:23:53 16° W 02:27:43 10° NW visible
18 Oct 2.9 23:25:13 21° E 23:27:02 24° ENE 23:31:55 10° NNE visible
19 Oct 2.2 01:10:19 60° WSW 01:10:26 60° W 01:16:40 10° NNW visible
19 Oct 2.2 23:56:45 38° E 23:57:46 41° ENE 00:03:34 10° N visible
20 Oct 3.2 01:41:51 34° W 01:41:51 34° W 01:47:19 10° NNW visible
20 Oct 3.5 22:43:30 10° ENE 22:45:53 12° NE 22:48:15 10° NNE visible
21 Oct 1.7 00:28:16 68° E 00:28:38 70° ENE 00:34:53 10° N visible
21 Oct 4.0 02:13:23 19° W 02:13:23 19° W 02:17:23 10° NW visible
21 Oct 3.0 23:14:40 19° E 23:16:23 21° ENE 23:20:53 10° NNE visible
22 Oct 2.0 00:59:47 69° W 00:59:47 69° W 01:05:55 10° NNW visible
22 Oct 2.4 23:46:11 34° E 23:47:03 36° ENE 23:52:38 10° N visible
